Time,TemperatureF,DewpointF,PressureIn,WindDirection,WindDirectionDegrees,WindSpeedMPH,WindSpeedGustMPH,Humidity,HourlyPrecipIn,Conditions,Clouds,dailyrainin,SoftwareType,DateUTC
2013-03-12 00:00:00,44.2,38.4,29.71,NE,49,4.0,-999.0,80,0.00,,,0.76,Wunderground v.1.15,2013-03-12 04:00:00,
2013-03-12 00:01:00,44.2,38.4,29.71,West,281,4.0,-999.0,80,0.00,,,0.00,Wunderground v.1.15,2013-03-12 04:01:00,
2013-03-12 00:02:00,44.1,38.3,29.71,West,279,4.0,-999.0,80,0.00,,,0.00,Wunderground v.1.15,2013-03-12 04:02:00,
2013-03-12 00:04:00,44.1,38.3,29.71,NW,304,5.0,-999.0,80,0.00,,,0.00,Wunderground v.1.15,2013-03-12 04:04:00,
2013-03-12 00:09:00,43.9,38.1,29.71,WNW,294,5.0,-999.0,80,0.00,,,0.00,Wunderground v.1.15,2013-03-12 04:09:00,
2013-03-12 00:15:00,43.7,37.9,29.72,SW,223,4.0,-999.0,80,0.00,,,0.00,Wunderground v.1.15,2013-03-12 04:15:00,
2013-03-12 00:20:00,43.6,38.2,29.72,West,259,3.0,-999.0,81,0.00,,,0.00,Wunderground v.1.15,2013-03-12 04:20:00,
2013-03-12 00:27:00,43.4,38.0,29.71,WNW,296,3.0,-999.0,81,0.00,,,0.00,Wunderground v.1.15,2013-03-12 04:27:00,
2013-03-12 00:33:00,43.4,38.0,29.72,SW,233,4.0,-999.0,81,0.00,,,0.00,Wunderground v.1.15,2013-03-12 04:33:00,
2013-03-12 00:38:00,43.4,38.0,29.72,West,266,4.0,-999.0,81,0.00,,,0.00,Wunderground v.1.15,2013-03-12 04:38:00,
2013-03-12 00:44:00,43.3,37.9,29.72,WSW,257,4.0,-999.0,81,0.00,,,0.00,Wunderground v.1.15,2013-03-12 04:44:00,
2013-03-12 00:50:00,43.2,37.8,29.72,WNW,298,3.0,-999.0,81,0.00,,,0.00,Wunderground v.1.15,2013-03-12 04:50:00,
2013-03-12 00:56:00,43.1,38.0,29.71,West,277,3.0,-999.0,82,0.00,,,0.00,Wunderground v.1.15,2013-03-12 04:56:00,
2013-03-12 01:02:00,43.0,38.2,29.72,WNW,286,2.0,-999.0,83,0.00,,,0.00,Wunderground v.1.15,2013-03-12 05:02:00,
2013-03-12 01:08:00,42.8,38.0,29.72,WNW,286,1.0,-999.0,83,0.00,,,0.00,Wunderground v.1.15,2013-03-12 05:08:00,
2013-03-12 01:14:00,42.8,38.3,29.72,WSW,244,0.0,-999.0,84,0.00,,,0.00,Wunderground v.1.15,2013-03-12 05:14:00,
2013-03-12 01:20:00,42.8,38.0,29.72,SW,224,2.0,-999.0,83,0.00,,,0.00,Wunderground v.1.15,2013-03-12 05:20:00,
2013-03-12 01:26:00,42.8,38.0,29.71,SW,224,2.0,-999.0,83,0.00,,,0.00,Wunderground v.1.15,2013-03-12 05:26:00,
2013-03-12 01:32:00,42.7,37.9,29.72,SW,224,1.0,-999.0,83,0.00,,,0.00,Wunderground v.1.15,2013-03-12 05:32:00,
2013-03-12 01:38:00,42.6,37.8,29.72,SW,224,0.0,-999.0,83,0.00,,,0.00,Wunderground v.1.15,2013-03-12 05:38:00,
2013-03-12 01:43:00,42.5,38.0,29.71,SW,224,0.0,-999.0,84,0.00,,,0.00,Wunderground v.1.15,2013-03-12 05:43:00,
2013-03-12 01:49:00,42.2,37.7,29.72,SW,223,2.0,-999.0,84,0.00,,,0.00,Wunderground v.1.15,2013-03-12 05:49:00,
2013-03-12 01:55:00,42.2,37.4,29.72,SSW,196,4.0,-999.0,83,0.00,,,0.00,Wunderground v.1.15,2013-03-12 05:55:00,
2013-03-12 02:01:00,42.2,37.1,29.73,SW,222,4.0,-999.0,82,0.00,,,0.00,Wunderground v.1.15,2013-03-12 06:01:00,
2013-03-12 02:07:00,42.0,36.6,29.73,SW,232,4.0,-999.0,81,0.00,,,0.00,Wunderground v.1.15,2013-03-12 06:07:00,
2013-03-12 02:13:00,41.9,36.5,29.73,WSW,244,4.0,-999.0,81,0.00,,,0.00,Wunderground v.1.15,2013-03-12 06:13:00,
2013-03-12 02:19:00,41.8,36.1,29.73,SW,218,3.0,-999.0,80,0.00,,,0.00,Wunderground v.1.15,2013-03-12 06:19:00,
2013-03-12 02:24:00,41.8,36.1,29.73,West,279,3.0,-999.0,80,0.00,,,0.00,Wunderground v.1.15,2013-03-12 06:24:00,
2013-03-12 02:30:00,41.7,35.7,29.73,WSW,257,4.0,-999.0,79,0.00,,,0.00,Wunderground v.1.15,2013-03-12 06:30:00,
2013-03-12 02:35:00,41.6,35.6,29.74,SW,236,4.0,-999.0,79,0.00,,,0.00,Wunderground v.1.15,2013-03-12 06:35:00,
2013-03-12 02:41:00,41.5,35.5,29.74,WNW,285,4.0,-999.0,79,0.00,,,0.00,Wunderground v.1.15,2013-03-12 06:41:00,
2013-03-12 02:47:00,41.3,35.6,29.75,WNW,284,4.0,-999.0,80,0.00,,,0.00,Wunderground v.1.15,2013-03-12 06:47:00,
2013-03-12 02:52:00,41.3,35.9,29.75,West,265,3.0,-999.0,81,0.00,,,0.00,Wunderground v.1.15,2013-03-12 06:52:00,
2013-03-12 02:57:00,41.1,35.7,29.75,WNW,294,3.0,-999.0,81,0.00,,,0.00,Wunderground v.1.15,2013-03-12 06:57:00,
2013-03-12 03:03:00,41.0,35.6,29.75,WNW,303,3.0,-999.0,81,0.00,,,0.00,Wunderground v.1.15,2013-03-12 07:03:00,
2013-03-12 03:09:00,40.9,35.2,29.75,WNW,288,5.0,-999.0,80,0.00,,,0.00,Wunderground v.1.15,2013-03-12 07:09:00,
2013-03-12 03:14:00,40.8,35.1,29.75,WNW,292,5.0,-999.0,80,0.00,,,0.00,Wunderground v.1.15,2013-03-12 07:14:00,
2013-03-12 03:20:00,40.7,35.0,29.76,NNW,327,4.0,-999.0,80,0.00,,,0.00,Wunderground v.1.15,2013-03-12 07:20:00,
2013-03-12 03:25:00,40.6,34.6,29.76,NW,305,4.0,-999.0,79,0.00,,,0.00,Wunderground v.1.15,2013-03-12 07:25:00,
2013-03-12 03:31:00,40.4,34.1,29.76,WNW,294,5.0,-999.0,78,0.00,,,0.00,Wunderground v.1.15,2013-03-12 07:31:00,
2013-03-12 03:36:00,40.2,33.9,29.76,West,274,6.0,-999.0,78,0.00,,,0.00,Wunderground v.1.15,2013-03-12 07:36:00,
2013-03-12 03:42:00,40.0,33.7,29.76,West,277,6.0,-999.0,78,0.00,,,0.00,Wunderground v.1.15,2013-03-12 07:42:00,
2013-03-12 03:47:00,39.8,33.5,29.77,WNW,302,6.0,-999.0,78,0.00,,,0.00,Wunderground v.1.15,2013-03-12 07:47:00,
2013-03-12 03:53:00,39.6,33.3,29.77,WNW,295,6.0,-999.0,78,0.00,,,0.00,Wunderground v.1.15,2013-03-12 07:53:00,
2013-03-12 03:58:00,39.4,33.1,29.77,WNW,300,6.0,-999.0,78,0.00,,,0.00,Wunderground v.1.15,2013-03-12 07:58:00,
2013-03-12 04:04:00,39.3,33.3,29.77,West,277,5.0,-999.0,79,0.00,,,0.00,Wunderground v.1.15,2013-03-12 08:04:00,
2013-03-12 04:10:00,39.0,32.7,29.77,West,278,5.0,-999.0,78,0.00,,,0.00,Wunderground v.1.15,2013-03-12 08:10:00,
2013-03-12 04:15:00,38.8,32.2,29.77,WSW,240,5.0,-999.0,77,0.00,,,0.00,Wunderground v.1.15,2013-03-12 08:15:00,
2013-03-12 04:21:00,38.6,32.0,29.77,WNW,298,4.0,-999.0,77,0.00,,,0.00,Wunderground v.1.15,2013-03-12 08:21:00,
2013-03-12 04:27:00,38.6,32.3,29.77,West,274,2.0,-999.0,78,0.00,,,0.00,Wunderground v.1.15,2013-03-12 08:27:00,
2013-03-12 04:32:00,38.5,32.2,29.76,WNW,289,2.0,-999.0,78,0.00,,,0.00,Wunderground v.1.15,2013-03-12 08:32:00,
2013-03-12 04:38:00,38.4,32.1,29.77,WNW,292,2.0,-999.0,78,0.00,,,0.00,Wunderground v.1.15,2013-03-12 08:38:00,
2013-03-12 04:44:00,38.4,32.1,29.77,West,266,3.0,-999.0,78,0.00,,,0.00,Wunderground v.1.15,2013-03-12 08:44:00,
2013-03-12 04:50:00,38.4,32.1,29.77,NW,304,3.0,-999.0,78,0.00,,,0.00,Wunderground v.1.15,2013-03-12 08:50:00,
2013-03-12 04:55:00,38.4,32.1,29.77,SW,217,4.0,-999.0,78,0.00,,,0.00,Wunderground v.1.15,2013-03-12 08:55:00,
2013-03-12 05:01:00,38.3,32.4,29.77,WSW,257,3.0,-999.0,79,0.00,,,0.00,Wunderground v.1.15,2013-03-12 09:01:00,
2013-03-12 05:06:00,38.3,32.4,29.77,West,279,4.0,-999.0,79,0.00,,,0.00,Wunderground v.1.15,2013-03-12 09:06:00,
2013-03-12 05:11:00,38.4,32.5,29.77,West,266,4.0,-999.0,79,0.00,,,0.00,Wunderground v.1.15,2013-03-12 09:11:00,
2013-03-12 05:17:00,38.4,32.1,29.77,SW,229,4.0,-999.0,78,0.00,,,0.00,Wunderground v.1.15,2013-03-12 09:17:00,
2013-03-12 05:23:00,38.4,32.1,29.78,SW,229,4.0,-999.0,78,0.00,,,0.00,Wunderground v.1.15,2013-03-12 09:23:00,
2013-03-12 05:29:00,38.4,32.1,29.78,WSW,246,3.0,-999.0,78,0.00,,,0.00,Wunderground v.1.15,2013-03-12 09:29:00,
2013-03-12 05:35:00,38.4,32.1,29.79,WNW,301,3.0,-999.0,78,0.00,,,0.00,Wunderground v.1.15,2013-03-12 09:35:00,
2013-03-12 05:41:00,38.4,32.1,29.79,SW,232,3.0,-999.0,78,0.00,,,0.00,Wunderground v.1.15,2013-03-12 09:41:00,
2013-03-12 05:47:00,38.4,32.5,29.79,WSW,255,3.0,-999.0,79,0.00,,,0.00,Wunderground v.1.15,2013-03-12 09:47:00,
2013-03-12 05:53:00,38.3,32.4,29.79,SW,214,2.0,-999.0,79,0.00,,,0.00,Wunderground v.1.15,2013-03-12 09:53:00,
2013-03-12 05:58:00,38.2,32.3,29.79,WSW,256,2.0,-999.0,79,0.00,,,0.00,Wunderground v.1.15,2013-03-12 09:58:00,
2013-03-12 06:03:00,38.2,32.3,29.79,SW,225,3.0,-999.0,79,0.00,,,0.00,Wunderground v.1.15,2013-03-12 10:03:00,
2013-03-12 06:08:00,38.1,32.5,29.79,WNW,285,4.0,-999.0,80,0.00,,,0.00,Wunderground v.1.15,2013-03-12 10:08:00,
2013-03-12 06:14:00,38.0,32.4,29.79,SW,235,4.0,-999.0,80,0.00,,,0.00,Wunderground v.1.15,2013-03-12 10:14:00,
2013-03-12 06:19:00,37.9,32.3,29.80,West,269,5.0,-999.0,80,0.00,,,0.00,Wunderground v.1.15,2013-03-12 10:19:00,
2013-03-12 06:25:00,37.9,32.3,29.80,West,269,4.0,-999.0,80,0.00,,,0.00,Wunderground v.1.15,2013-03-12 10:25:00,
2013-03-12 06:31:00,37.8,32.5,29.80,WSW,248,2.0,-999.0,81,0.00,,,0.00,Wunderground v.1.15,2013-03-12 10:31:00,
2013-03-12 06:36:00,37.8,32.5,29.80,SW,234,2.0,-999.0,81,0.00,,,0.00,Wunderground v.1.15,2013-03-12 10:36:00,
2013-03-12 06:42:00,37.7,32.4,29.80,West,271,2.0,-999.0,81,0.00,,,0.00,Wunderground v.1.15,2013-03-12 10:42:00,
2013-03-12 06:48:00,37.7,32.4,29.81,WSW,246,2.0,-999.0,81,0.00,,,0.00,Wunderground v.1.15,2013-03-12 10:48:00,
2013-03-12 06:54:00,37.7,32.4,29.80,SW,225,2.0,-999.0,81,0.00,,,0.00,Wunderground v.1.15,2013-03-12 10:54:00,
2013-03-12 06:59:00,37.6,32.3,29.80,SW,234,2.0,-999.0,81,0.00,,,0.00,Wunderground v.1.15,2013-03-12 10:59:00,
2013-03-12 07:04:00,37.5,32.5,29.81,West,276,2.0,-999.0,82,0.00,,,0.00,Wunderground v.1.15,2013-03-12 11:04:00,
2013-03-12 07:09:00,37.5,32.5,29.81,West,265,2.0,-999.0,82,0.00,,,0.00,Wunderground v.1.15,2013-03-12 11:09:00,
2013-03-12 07:15:00,37.4,32.4,29.81,SW,235,3.0,-999.0,82,0.00,,,0.00,Wunderground v.1.15,2013-03-12 11:15:00,
2013-03-12 07:21:00,37.4,32.4,29.81,West,262,3.0,-999.0,82,0.00,,,0.00,Wunderground v.1.15,2013-03-12 11:21:00,
2013-03-12 07:27:00,37.3,32.3,29.82,WSW,240,2.0,-999.0,82,0.00,,,0.00,Wunderground v.1.15,2013-03-12 11:27:00,
2013-03-12 07:32:00,37.3,32.3,29.82,SW,232,2.0,-999.0,82,0.00,,,0.00,Wunderground v.1.15,2013-03-12 11:32:00,
2013-03-12 07:38:00,37.2,32.2,29.82,WSW,240,3.0,-999.0,82,0.00,,,0.00,Wunderground v.1.15,2013-03-12 11:38:00,
2013-03-12 07:43:00,37.2,32.2,29.82,SW,232,3.0,-999.0,82,0.00,,,0.00,Wunderground v.1.15,2013-03-12 11:43:00,
2013-03-12 07:49:00,37.1,32.1,29.82,SW,234,5.0,-999.0,82,0.00,,,0.00,Wunderground v.1.15,2013-03-12 11:49:00,
2013-03-12 07:55:00,37.1,32.1,29.82,West,263,5.0,-999.0,82,0.00,,,0.00,Wunderground v.1.15,2013-03-12 11:55:00,
2013-03-12 08:01:00,37.1,32.1,29.82,WSW,250,4.0,-999.0,82,0.00,,,0.00,Wunderground v.1.15,2013-03-12 12:01:00,
2013-03-12 08:07:00,37.0,31.7,29.82,SW,234,4.0,-999.0,81,0.00,,,0.00,Wunderground v.1.15,2013-03-12 12:07:00,
2013-03-12 08:13:00,37.0,32.0,29.83,SW,219,5.0,-999.0,82,0.00,,,0.00,Wunderground v.1.15,2013-03-12 12:13:00,
2013-03-12 08:19:00,36.9,31.9,29.83,SW,220,4.0,-999.0,82,0.00,,,0.00,Wunderground v.1.15,2013-03-12 12:19:00,
2013-03-12 08:24:00,36.6,31.9,29.83,WSW,238,4.0,-999.0,83,0.00,,,0.00,Wunderground v.1.15,2013-03-12 12:24:00,
2013-03-12 08:30:00,36.4,32.0,29.83,SW,235,4.0,-999.0,84,0.00,,,0.00,Wunderground v.1.15,2013-03-12 12:30:00,
2013-03-12 08:37:00,36.3,31.9,29.83,WSW,253,4.0,-999.0,84,0.00,,,0.00,Wunderground v.1.15,2013-03-12 12:37:00,
2013-03-12 08:43:00,36.4,32.0,29.84,SW,232,4.0,-999.0,84,0.00,,,0.00,Wunderground v.1.15,2013-03-12 12:43:00,
2013-03-12 08:49:00,36.4,32.0,29.84,West,267,3.0,-999.0,84,0.00,,,0.00,Wunderground v.1.15,2013-03-12 12:49:00,
2013-03-12 08:55:00,36.5,32.1,29.84,WNW,297,4.0,-999.0,84,0.00,,,0.00,Wunderground v.1.15,2013-03-12 12:55:00,
2013-03-12 09:01:00,36.5,32.1,29.84,West,277,3.0,-999.0,84,0.00,,,0.00,Wunderground v.1.15,2013-03-12 13:01:00,
2013-03-12 09:06:00,36.4,32.0,29.84,WNW,302,3.0,-999.0,84,0.00,,,0.00,Wunderground v.1.15,2013-03-12 13:06:00,
2013-03-12 09:11:00,36.1,31.4,29.84,West,265,4.0,-999.0,83,0.00,,,0.00,Wunderground v.1.15,2013-03-12 13:11:00,
2013-03-12 09:17:00,36.1,31.7,29.84,WNW,301,5.0,-999.0,84,0.00,,,0.00,Wunderground v.1.15,2013-03-12 13:17:00,
2013-03-12 09:23:00,36.1,31.4,29.84,NW,306,5.0,-999.0,83,0.00,,,0.00,Wunderground v.1.15,2013-03-12 13:23:00,
2013-03-12 09:29:00,36.3,31.3,29.84,NW,304,5.0,-999.0,82,0.00,,,0.00,Wunderground v.1.15,2013-03-12 13:29:00,
2013-03-12 09:35:00,36.4,31.1,29.84,West,268,5.0,-999.0,81,0.00,,,0.00,Wunderground v.1.15,2013-03-12 13:35:00,
2013-03-12 09:40:00,36.4,31.1,29.85,WNW,285,5.0,-999.0,81,0.00,,,0.00,Wunderground v.1.15,2013-03-12 13:40:00,
2013-03-12 09:46:00,36.4,30.8,29.85,WNW,300,6.0,-999.0,80,0.00,,,0.00,Wunderground v.1.15,2013-03-12 13:46:00,
2013-03-12 09:51:00,36.4,30.8,29.85,NW,306,4.0,-999.0,80,0.00,,,0.00,Wunderground v.1.15,2013-03-12 13:51:00,
2013-03-12 09:56:00,36.4,30.8,29.85,WNW,285,4.0,-999.0,80,0.00,,,0.00,Wunderground v.1.15,2013-03-12 13:56:00,
2013-03-12 10:02:00,36.6,31.3,29.86,WSW,248,4.0,-999.0,81,0.00,,,0.00,Wunderground v.1.15,2013-03-12 14:02:00,
2013-03-12 10:08:00,36.6,31.0,29.86,WNW,292,3.0,-999.0,80,0.00,,,0.00,Wunderground v.1.15,2013-03-12 14:08:00,
2013-03-12 10:14:00,36.7,31.4,29.86,West,278,4.0,-999.0,81,0.00,,,0.00,Wunderground v.1.15,2013-03-12 14:14:00,
2013-03-12 10:20:00,36.7,31.1,29.86,WNW,286,4.0,-999.0,80,0.00,,,0.00,Wunderground v.1.15,2013-03-12 14:20:00,
2013-03-12 10:25:00,36.6,31.3,29.86,SW,225,5.0,-999.0,81,0.00,,,0.00,Wunderground v.1.15,2013-03-12 14:25:00,
2013-03-12 10:31:00,36.6,31.6,29.86,WNW,292,5.0,-999.0,82,0.00,,,0.00,Wunderground v.1.15,2013-03-12 14:31:00,
2013-03-12 10:36:00,36.6,31.3,29.86,WSW,253,5.0,-999.0,81,0.00,,,0.00,Wunderground v.1.15,2013-03-12 14:36:00,
2013-03-12 10:42:00,36.4,31.4,29.86,West,267,6.0,-999.0,82,0.00,,,0.00,Wunderground v.1.15,2013-03-12 14:42:00,
2013-03-12 10:47:00,36.4,31.4,29.87,NW,306,5.0,-999.0,82,0.00,,,0.00,Wunderground v.1.15,2013-03-12 14:47:00,
2013-03-12 10:53:00,36.4,31.4,29.87,WSW,238,4.0,-999.0,82,0.00,,,0.00,Wunderground v.1.15,2013-03-12 14:53:00,
2013-03-12 10:59:00,36.4,31.4,29.87,WSW,253,4.0,-999.0,82,0.00,,,0.00,Wunderground v.1.15,2013-03-12 14:59:00,
2013-03-12 11:05:00,36.2,31.2,29.87,West,260,5.0,-999.0,82,0.00,,,0.00,Wunderground v.1.15,2013-03-12 15:05:00,
2013-03-12 11:11:00,36.0,31.0,29.87,West,272,5.0,-999.0,82,0.00,,,0.00,Wunderground v.1.15,2013-03-12 15:11:00,
2013-03-12 11:17:00,35.9,30.9,29.87,WNW,299,5.0,-999.0,82,0.00,,,0.00,Wunderground v.1.15,2013-03-12 15:17:00,
2013-03-12 11:23:00,35.8,30.8,29.88,WNW,303,5.0,-999.0,82,0.00,,,0.00,Wunderground v.1.15,2013-03-12 15:23:00,
2013-03-12 11:28:00,35.8,30.8,29.87,NW,304,5.0,-999.0,82,0.00,,,0.00,Wunderground v.1.15,2013-03-12 15:28:00,
2013-03-12 11:34:00,36.0,30.7,29.87,West,276,5.0,-999.0,81,0.00,,,0.00,Wunderground v.1.15,2013-03-12 15:34:00,
2013-03-12 11:40:00,36.1,30.5,29.87,West,271,5.0,-999.0,80,0.00,,,0.00,Wunderground v.1.15,2013-03-12 15:40:00,
2013-03-12 11:46:00,36.2,30.6,29.87,WSW,250,6.0,-999.0,80,0.00,,,0.00,Wunderground v.1.15,2013-03-12 15:46:00,
2013-03-12 11:51:00,36.1,30.5,29.87,WSW,240,7.0,-999.0,80,0.00,,,0.00,Wunderground v.1.15,2013-03-12 15:51:00,
2013-03-12 11:57:00,36.1,30.5,29.88,WSW,248,6.0,-999.0,80,0.00,,,0.00,Wunderground v.1.15,2013-03-12 15:57:00,
2013-03-12 12:03:00,36.0,30.4,29.87,SW,219,5.0,-999.0,80,0.00,,,0.00,Wunderground v.1.15,2013-03-12 16:03:00,
2013-03-12 12:09:00,36.1,30.8,29.87,WSW,253,6.0,-999.0,81,0.00,,,0.00,Wunderground v.1.15,2013-03-12 16:09:00,
2013-03-12 12:15:00,36.5,31.2,29.87,SW,234,6.0,-999.0,81,0.00,,,0.00,Wunderground v.1.15,2013-03-12 16:15:00,
2013-03-12 12:20:00,36.7,31.4,29.88,West,261,6.0,-999.0,81,0.00,,,0.00,Wunderground v.1.15,2013-03-12 16:20:00,
2013-03-12 12:25:00,36.9,31.0,29.88,SW,227,6.0,-999.0,79,0.00,,,0.00,Wunderground v.1.15,2013-03-12 16:25:00,
2013-03-12 12:30:00,36.8,30.9,29.88,WNW,294,7.0,-999.0,79,0.00,,,0.00,Wunderground v.1.15,2013-03-12 16:30:00,
2013-03-12 12:35:00,36.9,31.0,29.88,WSW,254,6.0,-999.0,79,0.00,,,0.00,Wunderground v.1.15,2013-03-12 16:35:00,
2013-03-12 12:41:00,36.9,31.0,29.88,WSW,240,6.0,-999.0,79,0.00,,,0.00,Wunderground v.1.15,2013-03-12 16:41:00,
2013-03-12 12:47:00,37.3,31.7,29.88,WNW,288,6.0,-999.0,80,0.00,,,0.00,Wunderground v.1.15,2013-03-12 16:47:00,
2013-03-12 12:53:00,37.3,31.4,29.88,SW,227,5.0,-999.0,79,0.00,,,0.00,Wunderground v.1.15,2013-03-12 16:53:00,
2013-03-12 12:59:00,37.3,31.1,29.87,SSW,198,6.0,-999.0,78,0.00,,,0.00,Wunderground v.1.15,2013-03-12 16:59:00,
2013-03-12 13:05:00,37.2,31.0,29.87,SW,224,6.0,-999.0,78,0.00,,,0.00,Wunderground v.1.15,2013-03-12 17:05:00,
2013-03-12 13:11:00,37.1,30.9,29.87,SW,235,5.0,-999.0,78,0.00,,,0.00,Wunderground v.1.15,2013-03-12 17:11:00,
2013-03-12 13:17:00,37.0,30.8,29.87,WSW,254,5.0,-999.0,78,0.00,,,0.00,Wunderground v.1.15,2013-03-12 17:17:00,
2013-03-12 13:23:00,36.9,30.7,29.87,SW,226,5.0,-999.0,78,0.00,,,0.00,Wunderground v.1.15,2013-03-12 17:23:00,
2013-03-12 13:29:00,37.0,31.1,29.87,WSW,257,4.0,-999.0,79,0.00,,,0.00,Wunderground v.1.15,2013-03-12 17:29:00,
2013-03-12 13:34:00,37.1,31.5,29.87,SW,236,4.0,-999.0,80,0.00,,,0.00,Wunderground v.1.15,2013-03-12 17:34:00,
2013-03-12 13:39:00,37.4,31.8,29.87,SW,214,4.0,-999.0,80,0.00,,,0.00,Wunderground v.1.15,2013-03-12 17:39:00,
2013-03-12 13:45:00,37.8,31.9,29.87,WSW,257,5.0,-999.0,79,0.00,,,0.00,Wunderground v.1.15,2013-03-12 17:45:00,
2013-03-12 13:51:00,37.9,31.7,29.87,WSW,254,4.0,-999.0,78,0.00,,,0.00,Wunderground v.1.15,2013-03-12 17:51:00,
2013-03-12 13:57:00,37.7,31.1,29.88,SW,223,4.0,-999.0,77,0.00,,,0.00,Wunderground v.1.15,2013-03-12 17:57:00,
2013-03-12 14:02:00,37.6,31.4,29.87,WSW,246,5.0,-999.0,78,0.00,,,0.00,Wunderground v.1.15,2013-03-12 18:02:00,
2013-03-12 14:07:00,37.8,31.6,29.87,WSW,240,5.0,-999.0,78,0.00,,,0.00,Wunderground v.1.15,2013-03-12 18:07:00,
2013-03-12 14:12:00,38.4,32.1,29.87,SW,234,5.0,-999.0,78,0.00,,,0.00,Wunderground v.1.15,2013-03-12 18:12:00,
2013-03-12 14:18:00,39.0,32.1,29.87,WNW,286,4.0,-999.0,76,0.00,,,0.00,Wunderground v.1.15,2013-03-12 18:18:00,
2013-03-12 14:24:00,39.1,31.2,29.87,WNW,285,4.0,-999.0,73,0.00,,,0.00,Wunderground v.1.15,2013-03-12 18:24:00,
2013-03-12 14:29:00,38.6,30.7,29.88,WSW,240,5.0,-999.0,73,0.00,,,0.00,Wunderground v.1.15,2013-03-12 18:29:00,
2013-03-12 14:35:00,38.4,30.8,29.87,WSW,248,5.0,-999.0,74,0.00,,,0.00,Wunderground v.1.15,2013-03-12 18:35:00,
2013-03-12 14:41:00,38.3,31.1,29.87,West,273,3.0,-999.0,75,0.00,,,0.00,Wunderground v.1.15,2013-03-12 18:41:00,
2013-03-12 14:47:00,38.3,31.1,29.87,WSW,255,4.0,-999.0,75,0.00,,,0.00,Wunderground v.1.15,2013-03-12 18:47:00,
2013-03-12 14:53:00,38.0,30.8,29.87,WSW,238,6.0,-999.0,75,0.00,,,0.00,Wunderground v.1.15,2013-03-12 18:53:00,
2013-03-12 14:59:00,37.7,31.1,29.87,SSW,209,8.0,-999.0,77,0.00,,,0.00,Wunderground v.1.15,2013-03-12 18:59:00,
2013-03-12 15:05:00,37.4,31.2,29.88,NW,306,7.0,-999.0,78,0.00,,,0.00,Wunderground v.1.15,2013-03-12 19:05:00,
2013-03-12 15:11:00,37.2,31.3,29.88,WSW,242,6.0,-999.0,79,0.00,,,0.00,Wunderground v.1.15,2013-03-12 19:11:00,
2013-03-12 15:17:00,37.2,31.3,29.88,WSW,247,5.0,-999.0,79,0.00,,,0.00,Wunderground v.1.15,2013-03-12 19:17:00,
2013-03-12 15:23:00,37.3,31.7,29.88,WNW,284,3.0,-999.0,80,0.00,,,0.00,Wunderground v.1.15,2013-03-12 19:23:00,
2013-03-12 15:29:00,36.8,31.5,29.88,SW,221,4.0,-999.0,81,0.00,,,0.00,Wunderground v.1.15,2013-03-12 19:29:00,
2013-03-12 15:35:00,36.9,32.2,29.88,West,273,4.0,-999.0,83,0.00,,,0.00,Wunderground v.1.15,2013-03-12 19:35:00,
2013-03-12 15:40:00,37.2,32.2,29.88,WSW,250,3.0,-999.0,82,0.00,,,0.00,Wunderground v.1.15,2013-03-12 19:40:00,
2013-03-12 15:46:00,37.6,32.0,29.87,SW,227,4.0,-999.0,80,0.00,,,0.00,Wunderground v.1.15,2013-03-12 19:46:00,
2013-03-12 15:52:00,37.7,31.8,29.87,WSW,241,4.0,-999.0,79,0.00,,,0.00,Wunderground v.1.15,2013-03-12 19:52:00,
2013-03-12 15:58:00,37.7,31.8,29.87,SW,224,3.0,-999.0,79,0.00,,,0.00,Wunderground v.1.15,2013-03-12 19:58:00,
2013-03-12 16:04:00,37.6,31.0,29.88,SW,223,6.0,-999.0,77,0.00,,,0.01,Wunderground v.1.15,2013-03-12 20:04:00,
2013-03-12 16:10:00,37.4,30.5,29.88,WSW,249,7.0,-999.0,76,0.00,,,0.01,Wunderground v.1.15,2013-03-12 20:10:00,
2013-03-12 16:16:00,37.4,30.5,29.88,West,269,5.0,-999.0,76,0.00,,,0.01,Wunderground v.1.15,2013-03-12 20:16:00,
2013-03-12 16:22:00,37.5,30.6,29.88,WNW,302,4.0,-999.0,76,0.00,,,0.01,Wunderground v.1.15,2013-03-12 20:22:00,
2013-03-12 16:27:00,37.7,30.8,29.88,West,267,5.0,-999.0,76,0.00,,,0.01,Wunderground v.1.15,2013-03-12 20:27:00,
2013-03-12 16:33:00,37.6,30.7,29.88,West,261,6.0,-999.0,76,0.00,,,0.01,Wunderground v.1.15,2013-03-12 20:33:00,
2013-03-12 16:38:00,37.6,30.4,29.88,SW,225,5.0,-999.0,75,0.00,,,0.01,Wunderground v.1.15,2013-03-12 20:38:00,
2013-03-12 16:44:00,37.8,30.3,29.88,SSW,208,4.0,-999.0,74,0.00,,,0.01,Wunderground v.1.15,2013-03-12 20:44:00,
2013-03-12 16:50:00,38.0,29.8,29.88,SSW,213,5.0,-999.0,72,0.00,,,0.01,Wunderground v.1.15,2013-03-12 20:50:00,
2013-03-12 16:56:00,38.2,29.6,29.88,WNW,284,6.0,-999.0,71,0.00,,,0.01,Wunderground v.1.15,2013-03-12 20:56:00,
2013-03-12 17:02:00,38.2,29.3,29.88,SW,225,7.0,-999.0,70,0.00,,,0.01,Wunderground v.1.15,2013-03-12 21:02:00,
2013-03-12 17:07:00,38.2,29.3,29.88,WSW,240,7.0,-999.0,70,0.00,,,0.01,Wunderground v.1.15,2013-03-12 21:07:00,
2013-03-12 17:12:00,38.1,29.2,29.88,West,278,6.0,-999.0,70,0.00,,,0.01,Wunderground v.1.15,2013-03-12 21:12:00,
2013-03-12 17:18:00,38.1,29.2,29.88,West,273,4.0,-999.0,70,0.00,,,0.01,Wunderground v.1.15,2013-03-12 21:18:00,
2013-03-12 17:23:00,38.0,29.1,29.88,WNW,288,5.0,-999.0,70,0.00,,,0.01,Wunderground v.1.15,2013-03-12 21:23:00,
2013-03-12 17:29:00,38.0,29.4,29.88,WNW,294,6.0,-999.0,71,0.00,,,0.01,Wunderground v.1.15,2013-03-12 21:29:00,
2013-03-12 17:35:00,37.9,29.3,29.88,West,268,5.0,-999.0,71,0.00,,,0.01,Wunderground v.1.15,2013-03-12 21:35:00,
2013-03-12 17:41:00,37.9,29.3,29.89,West,261,5.0,-999.0,71,0.00,,,0.01,Wunderground v.1.15,2013-03-12 21:41:00,
2013-03-12 17:47:00,37.9,29.7,29.89,WSW,252,4.0,-999.0,72,0.00,,,0.01,Wunderground v.1.15,2013-03-12 21:47:00,
2013-03-12 17:52:00,37.8,29.2,29.89,West,278,5.0,-999.0,71,0.00,,,0.01,Wunderground v.1.15,2013-03-12 21:52:00,
2013-03-12 17:58:00,37.7,29.5,29.89,WSW,255,6.0,-999.0,72,0.00,,,0.01,Wunderground v.1.15,2013-03-12 21:58:00,
2013-03-12 18:04:00,37.7,29.5,29.90,West,280,4.0,-999.0,72,0.00,,,0.01,Wunderground v.1.15,2013-03-12 22:04:00,
2013-03-12 18:10:00,37.6,29.4,29.90,WSW,255,5.0,-999.0,72,0.00,,,0.01,Wunderground v.1.15,2013-03-12 22:10:00,
2013-03-12 18:15:00,37.6,29.4,29.89,West,274,5.0,-999.0,72,0.00,,,0.01,Wunderground v.1.15,2013-03-12 22:15:00,
2013-03-12 18:21:00,37.5,29.6,29.90,WSW,258,4.0,-999.0,73,0.00,,,0.01,Wunderground v.1.15,2013-03-12 22:21:00,
2013-03-12 18:27:00,37.5,30.0,29.90,WNW,293,3.0,-999.0,74,0.00,,,0.01,Wunderground v.1.15,2013-03-12 22:27:00,
2013-03-12 18:33:00,37.5,30.0,29.90,WNW,288,3.0,-999.0,74,0.00,,,0.01,Wunderground v.1.15,2013-03-12 22:33:00,
2013-03-12 18:38:00,37.5,30.0,29.90,SW,221,3.0,-999.0,74,0.00,,,0.01,Wunderground v.1.15,2013-03-12 22:38:00,
2013-03-12 18:43:00,37.4,29.9,29.90,WSW,244,3.0,-999.0,74,0.00,,,0.01,Wunderground v.1.15,2013-03-12 22:43:00,
2013-03-12 18:48:00,37.3,30.1,29.91,SW,235,4.0,-999.0,75,0.00,,,0.01,Wunderground v.1.15,2013-03-12 22:48:00,
2013-03-12 18:54:00,37.2,30.3,29.91,WSW,241,5.0,-999.0,76,0.00,,,0.01,Wunderground v.1.15,2013-03-12 22:54:00,
2013-03-12 19:00:00,37.0,30.1,29.91,SW,225,4.0,-999.0,76,0.00,,,0.01,Wunderground v.1.15,2013-03-12 23:00:00,
2013-03-12 19:06:00,36.9,30.4,29.91,SW,222,3.0,-999.0,77,0.00,,,0.01,Wunderground v.1.15,2013-03-12 23:06:00,
2013-03-12 19:12:00,36.8,30.3,29.91,WSW,249,3.0,-999.0,77,0.00,,,0.01,Wunderground v.1.15,2013-03-12 23:12:00,
2013-03-12 19:17:00,36.7,30.2,29.91,WSW,244,3.0,-999.0,77,0.00,,,0.01,Wunderground v.1.15,2013-03-12 23:17:00,
2013-03-12 19:22:00,36.7,30.2,29.91,West,261,2.0,-999.0,77,0.00,,,0.01,Wunderground v.1.15,2013-03-12 23:22:00,
2013-03-12 19:28:00,36.6,30.1,29.92,SW,226,4.0,-999.0,77,0.00,,,0.01,Wunderground v.1.15,2013-03-12 23:28:00,
2013-03-12 19:34:00,36.5,30.0,29.92,WSW,251,3.0,-999.0,77,0.00,,,0.01,Wunderground v.1.15,2013-03-12 23:34:00,
2013-03-12 19:39:00,36.5,30.0,29.92,SW,229,3.0,-999.0,77,0.00,,,0.01,Wunderground v.1.15,2013-03-12 23:39:00,
2013-03-12 19:45:00,36.5,30.0,29.92,WNW,287,3.0,-999.0,77,0.00,,,0.01,Wunderground v.1.15,2013-03-12 23:45:00,
2013-03-12 19:51:00,36.5,30.0,29.92,SW,236,4.0,-999.0,77,0.00,,,0.01,Wunderground v.1.15,2013-03-12 23:51:00,
2013-03-12 19:57:00,36.5,30.0,29.92,West,278,4.0,-999.0,77,0.00,,,0.01,Wunderground v.1.15,2013-03-12 23:57:00,
2013-03-12 20:03:00,36.5,30.0,29.93,WSW,245,3.0,-999.0,77,0.00,,,0.01,Wunderground v.1.15,2013-03-13 00:03:00,
2013-03-12 20:09:00,36.5,30.0,29.93,SSW,205,2.0,-999.0,77,0.00,,,0.01,Wunderground v.1.15,2013-03-13 00:09:00,
2013-03-12 20:15:00,36.4,29.9,29.93,SW,223,2.0,-999.0,77,0.00,,,0.01,Wunderground v.1.15,2013-03-13 00:15:00,
2013-03-12 20:20:00,36.4,29.9,29.93,WSW,240,3.0,-999.0,77,0.00,,,0.01,Wunderground v.1.15,2013-03-13 00:20:00,
2013-03-12 20:26:00,36.4,30.2,29.94,West,278,3.0,-999.0,78,0.00,,,0.01,Wunderground v.1.15,2013-03-13 00:26:00,
2013-03-12 20:32:00,36.4,30.2,29.94,SW,229,2.0,-999.0,78,0.00,,,0.01,Wunderground v.1.15,2013-03-13 00:32:00,
2013-03-12 20:37:00,36.4,30.2,29.94,WSW,242,2.0,-999.0,78,0.00,,,0.01,Wunderground v.1.15,2013-03-13 00:37:00,
2013-03-12 20:43:00,36.4,30.2,29.94,West,261,2.0,-999.0,78,0.00,,,0.01,Wunderground v.1.15,2013-03-13 00:43:00,
2013-03-12 20:49:00,36.3,30.1,29.94,SW,232,2.0,-999.0,78,0.00,,,0.01,Wunderground v.1.15,2013-03-13 00:49:00,
2013-03-12 20:55:00,36.3,30.1,29.94,SW,228,2.0,-999.0,78,0.00,,,0.01,Wunderground v.1.15,2013-03-13 00:55:00,
2013-03-12 21:00:00,36.3,30.1,29.94,SW,235,2.0,-999.0,78,0.00,,,0.01,Wunderground v.1.15,2013-03-13 01:00:00,
2013-03-12 21:06:00,36.3,30.1,29.95,WNW,300,2.0,-999.0,78,0.00,,,0.01,Wunderground v.1.15,2013-03-13 01:06:00,
2013-03-12 21:11:00,36.3,30.1,29.95,WNW,298,2.0,-999.0,78,0.00,,,0.01,Wunderground v.1.15,2013-03-13 01:11:00,
2013-03-12 21:16:00,36.3,30.1,29.95,WNW,298,1.0,-999.0,78,0.00,,,0.01,Wunderground v.1.15,2013-03-13 01:16:00,
2013-03-12 21:22:00,36.2,30.3,29.94,WNW,298,0.0,-999.0,79,0.00,,,0.01,Wunderground v.1.15,2013-03-13 01:22:00,
2013-03-12 21:28:00,36.1,30.2,29.94,WNW,298,0.0,-999.0,79,0.00,,,0.01,Wunderground v.1.15,2013-03-13 01:28:00,
2013-03-12 21:33:00,36.0,30.1,29.94,West,279,0.0,-999.0,79,0.00,,,0.01,Wunderground v.1.15,2013-03-13 01:33:00,
2013-03-12 21:39:00,35.9,29.7,29.94,WNW,282,0.0,-999.0,78,0.00,,,0.01,Wunderground v.1.15,2013-03-13 01:39:00,
2013-03-12 21:45:00,35.9,29.7,29.94,WNW,282,0.0,-999.0,78,0.00,,,0.01,Wunderground v.1.15,2013-03-13 01:45:00,
2013-03-12 21:50:00,35.9,29.4,29.94,WNW,283,0.0,-999.0,77,0.00,,,0.01,Wunderground v.1.15,2013-03-13 01:50:00,
2013-03-12 21:55:00,35.9,29.4,29.94,WNW,282,0.0,-999.0,77,0.00,,,0.01,Wunderground v.1.15,2013-03-13 01:55:00,
2013-03-12 22:01:00,35.9,29.4,29.94,WNW,283,0.0,-999.0,77,0.00,,,0.01,Wunderground v.1.15,2013-03-13 02:01:00,
2013-03-12 22:07:00,35.8,29.3,29.94,WNW,283,0.0,-999.0,77,0.00,,,0.01,Wunderground v.1.15,2013-03-13 02:07:00,
2013-03-12 22:13:00,35.7,29.5,29.94,WNW,282,0.0,-999.0,78,0.00,,,0.01,Wunderground v.1.15,2013-03-13 02:13:00,
2013-03-12 22:18:00,35.6,29.4,29.94,WNW,282,0.0,-999.0,78,0.00,,,0.01,Wunderground v.1.15,2013-03-13 02:18:00,
2013-03-12 22:24:00,35.5,29.6,29.94,WSW,257,0.0,-999.0,79,0.00,,,0.01,Wunderground v.1.15,2013-03-13 02:24:00,
2013-03-12 22:30:00,35.6,29.4,29.94,South,186,1.0,-999.0,78,0.00,,,0.01,Wunderground v.1.15,2013-03-13 02:30:00,
2013-03-12 22:36:00,35.8,29.3,29.94,SW,219,1.0,-999.0,77,0.00,,,0.01,Wunderground v.1.15,2013-03-13 02:36:00,
2013-03-12 22:41:00,35.8,29.3,29.94,SW,219,1.0,-999.0,77,0.00,,,0.01,Wunderground v.1.15,2013-03-13 02:41:00,
2013-03-12 22:47:00,35.8,29.3,29.94,SW,219,0.0,-999.0,77,0.00,,,0.01,Wunderground v.1.15,2013-03-13 02:47:00,
2013-03-12 22:52:00,35.7,29.2,29.94,SW,219,0.0,-999.0,77,0.00,,,0.01,Wunderground v.1.15,2013-03-13 02:52:00,
2013-03-12 22:58:00,35.7,29.2,29.94,SW,219,0.0,-999.0,77,0.00,,,0.01,Wunderground v.1.15,2013-03-13 02:58:00,
2013-03-12 23:04:00,35.7,29.2,29.94,SW,219,0.0,-999.0,77,0.00,,,0.01,Wunderground v.1.15,2013-03-13 03:04:00,
2013-03-12 23:10:00,35.7,29.2,29.95,SW,219,0.0,-999.0,77,0.00,,,0.01,Wunderground v.1.15,2013-03-13 03:10:00,
2013-03-12 23:16:00,35.5,29.6,29.95,WNW,293,1.0,-999.0,79,0.00,,,0.01,Wunderground v.1.15,2013-03-13 03:16:00,
2013-03-12 23:21:00,35.0,29.8,29.95,WNW,293,2.0,-999.0,81,0.00,,,0.01,Wunderground v.1.15,2013-03-13 03:21:00,
2013-03-12 23:26:00,34.4,29.8,29.95,West,277,2.0,-999.0,83,0.00,,,0.01,Wunderground v.1.15,2013-03-13 03:26:00,
2013-03-12 23:32:00,34.0,30.0,29.95,West,278,2.0,-999.0,85,0.00,,,0.01,Wunderground v.1.15,2013-03-13 03:32:00,
2013-03-12 23:38:00,33.7,30.2,29.95,West,277,1.0,-999.0,87,0.00,,,0.01,Wunderground v.1.15,2013-03-13 03:38:00,
2013-03-12 23:43:00,33.6,30.1,29.94,West,277,0.0,-999.0,87,0.00,,,0.01,Wunderground v.1.15,2013-03-13 03:43:00,
2013-03-12 23:49:00,33.4,29.9,29.94,West,277,0.0,-999.0,87,0.00,,,0.01,Wunderground v.1.15,2013-03-13 03:49:00,
2013-03-12 23:55:00,33.2,30.0,29.93,West,277,0.0,-999.0,88,0.00,,,0.01,Wunderground v.1.15,2013-03-13 03:55:00,